H1 CPF 2 NER 2025 11 19 9 323 01 glonass146 H2 2216101 9146 54377 2025 11 19 0 0 0 2025 11 22 23 45 0 900 1 1 0 0 0 1 H9 10 0 60998 0.00000 0 -18503298.727 17140538.023 -3934194.473 10 0 60998 900.00000 0 -18621859.841 17446384.659 -738070.776 10 0 60998 1800.00000 0 -18436556.378 17484326.393 2472356.789 10 0 60998 2700.00000 0 -17987911.338 17216533.549 5634867.724 10 0 60998 3600.00000 0 -17324696.802 16615651.488 8688174.548 10 0 60998 4500.00000 0 -16501731.412 15666152.711 11573104.103 10 0 60998 5400.00000 0 -15577441.482 14365206.676 14233737.874 10 0 60998 6300.00000 0 -14611288.151 12723030.057 16618489.719 10 0 60998 7200.00000 0 -13661168.408 10762701.789 18681100.637 10 0 60998 8100.00000 0 -12780898.814 8519449.275 20381531.885 10 0 60998 9000.00000 0 -12017887.159 6039434.007 21686739.688 10 0 60998 9900.00000 0 -11411089.500 3378085.454 22571316.915 10 0 60998 10800.00000 0 -10989338.151 598050.765 23017989.547 10 0 60998 11700.00000 0 -10770110.856 -2233156.350 23017958.329 10 0 60998 12600.00000 0 -10758793.152 -5045711.537 22571078.650 10 0 60998 13500.00000 0 -10948465.471 -7770135.878 21685874.596 10 0 60998 14400.00000 0 -11320224.779 -10339943.033 20379386.030 10 0 60998 15300.00000 0 -11844028.176 -12694168.223 18676850.570 10 0 60998 16200.00000 0 -12480023.988 -14779674.413 16611225.480 10 0 60998 17100.00000 0 -13180315.171 -16553139.763 14222557.531 10 0 60998 18000.00000 0 -13891081.331 -17982643.357 11557212.072 10 0 60998 18900.00000 0 -14554970.119 -19048782.702 8666975.504 10 0 60998 19800.00000 0 -15113656.842 -19745275.968 5608048.187 10 0 60998 20700.00000 0 -15510463.505 -20079023.538 2439947.396 10 0 60998 21600.00000 0 -15692925.490 -20069626.376 -775657.889 10 0 60998 22500.00000 0 -15615195.980 -19748381.877 -3976156.868 10 0 60998 23400.00000 0 -15240184.823 -19156800.216 -7099226.788 10 0 60998 24300.00000 0 -14541339.826 -18344704.836 -10084057.545 10 0 60998 25200.00000 0 -13503993.669 -17367998.492 -12872545.926 10 0 60998 26100.00000 0 -12126218.276 -16286190.539 -15410435.010 10 0 60998 27000.00000 0 -10419149.603 -15159791.213 -17648375.669 10 0 60998 27900.00000 0 -8406768.430 -14047683.994 -19542888.964 10 0 60998 28800.00000 0 -6125145.937 -13004587.747 -21057210.529 10 0 60998 29700.00000 0 -3621185.475 -12078716.023 -22162000.769 10 0 60998 30600.00000 0 -950913.064 -11309732.087 -22835907.643 10 0 60998 31500.00000 0 1822612.001 -10727085.268 -23065971.909 10 0 60998 32400.00000 0 4631679.465 -10348797.748 -22847867.928 10 0 60998 33300.00000 0 7406504.456 -10180751.676 -22185976.368 10 0 60998 34200.00000 0 10077891.119 -10216505.247 -21093288.275 10 0 60998 35100.00000 0 12579873.600 -10437644.157 -19591143.212 10 0 60998 36000.00000 0 14852225.572 -10814652.436 -17708807.055 10 0 60998 36900.00000 0 16842735.169 -11308264.960 -15482898.073 10 0 60998 37800.00000 0 18509152.074 -11871243.932 -12956672.556 10 0 60998 38700.00000 0 19820727.223 -12450504.030 -10179183.875 10 0 60998 39600.00000 0 20759282.472 -12989496.418 -7204331.176 10 0 60998 40500.00000 0 21319767.110 -13430751.091 -4089815.979 10 0 60998 41400.00000 0 21510279.442 -13718470.493 -896026.664 10 0 60998 42300.00000 0 21351553.742 -13801065.202 2315127.752 10 0 60998 43200.00000 0 20875935.184 -13633524.975 5481412.214 10 0 60998 44100.00000 0 20125886.457 -13179525.265 8541465.784 10 0 60998 45000.00000 0 19152089.256 -12413180.410 11435984.393 10 0 60998 45900.00000 0 18011220.489 -11320369.377 14108863.711 10 0 60998 46800.00000 0 16763496.480 -9899577.717 16508280.487 10 0 60998 47700.00000 0 15470087.906 -8162219.415 18587691.906 10 0 60998 48600.00000 0 14190513.478 -6132423.897 20306734.188 10 0 60998 49500.00000 0 12980121.080 -3846295.473 21632003.534 10 0 60998 50400.00000 0 11887761.430 -1350674.343 22537704.703 10 0 60998 51300.00000 0 10953751.287 1298551.169 23006154.895 10 0 60998 52200.00000 0 10208211.275 4038512.923 23028133.206 10 0 60998 53100.00000 0 9669847.887 6801727.679 22603068.564 10 0 60998 54000.00000 0 9345230.907 9518661.686 21739061.957 10 0 60998 54900.00000 0 9228596.973 12120389.981 20452741.645 10 0 60998 55800.00000 0 9302188.045 14541240.871 18768953.111 10 0 60998 56700.00000 0 9537111.260 16721316.216 16720288.585 10 0 60998 57600.00000 0 9894684.567 18608782.796 14346464.068 10 0 60998 58500.00000 0 10328211.939 20161839.047 11693554.947 10 0 60998 59400.00000 0 10785113.467 21350274.680 8813104.260 10 0 60998 60300.00000 0 11209320.216 22156557.442 5761120.492 10 0 60998 61200.00000 0 11543832.046 22576401.033 2596984.450 10 0 60998 62100.00000 0 11733329.222 22618790.093 -617713.133 10 0 60998 63000.00000 0 11726725.986 22305461.213 -3820379.832 10 0 60998 63900.00000 0 11479556.452 21669862.189 -6948650.937 10 0 60998 64800.00000 0 10956090.210 20755634.109 -9941614.850 10 0 60998 65700.00000 0 10131086.518 19614681.219 -12741009.327 10 0 60998 66600.00000 0 8991111.490 18304911.208 -15292364.073 10 0 60998 67500.00000 0 7535361.452 16887742.423 -17546066.531 10 0 60998 68400.00000 0 5775956.775 15425484.200 -19458329.590 10 0 60998 69300.00000 0 3737693.198 13978701.605 -20992042.139 10 0 60998 70200.00000 0 1457260.620 12603675.990 -22117486.183 10 0 60998 71100.00000 0 -1018038.147 11350068.268 -22812907.118 10 0 60998 72000.00000 0 -3632015.237 10258882.693 -23064926.881 10 0 60998 72900.00000 0 -6321700.223 9360815.825 -22868792.937 10 0 60998 73800.00000 0 -9019729.855 8675058.750 -22228459.241 10 0 60998 74700.00000 0 -11656925.900 8208601.343 -21156498.571 10 0 60998 75600.00000 0 -14164954.428 7956066.146 -19673848.695 10 0 60998 76500.00000 0 -16478956.702 7900077.211 -17809397.905 10 0 60998 77400.00000 0 -18540043.213 8012146.915 -15599418.349 10 0 60998 78300.00000 0 -20297548.206 8254042.164 -13086858.313 10 0 60998 79200.00000 0 -21710952.068 8579571.522 -10320507.202 10 0 60998 80100.00000 0 -22751392.748 8936717.272 -7354049.309 10 0 60998 81000.00000 0 -23402704.438 9270022.167 -4245024.525 10 0 60998 81900.00000 0 -23661941.383 9523130.015 -1053715.900 10 0 60998 82800.00000 0 -23539366.022 9641372.931 2158014.593 10 0 60998 83700.00000 0 -23057902.893 9574296.162 5327919.818 10 0 60998 84600.00000 0 -22252081.907 9278014.038 8394567.917 10 0 60998 85500.00000 0 -21166515.723 8717297.685 11298526.501 10 0 60999 0.00000 0 -19853975.377 7867306.404 13983507.808 10 0 60999 900.00000 0 -18373144.004 6714888.882 16397454.547 10 0 60999 1800.00000 0 -16786144.244 5259399.911 18493542.341 10 0 60999 2700.00000 0 -15155940.081 3512995.735 20231084.709 10 0 60999 3600.00000 0 -13543722.910 1500395.199 21576319.944 10 0 60999 4500.00000 0 -12006389.882 -741885.470 22503066.527 10 0 60999 5400.00000 0 -10594219.441 -3166794.226 22993234.390 10 0 60999 6300.00000 0 -9348840.705 -5718450.650 23037182.133 10 0 60999 7200.00000 0 -8301581.237 -8334230.199 22633913.017 10 0 60999 8100.00000 0 -7472262.152 -10947140.448 21791105.341 10 0 60999 9000.00000 0 -6868491.032 -13488392.141 20524975.794 10 0 60999 9900.00000 0 -6485482.478 -15890059.267 18859977.365 10 0 60999 10800.00000 0 -6306414.176 -18087718.265 16828336.495 10 0 60999 11700.00000 0 -6303303.822 -20022956.733 14469437.289 10 0 60999 12600.00000 0 -6438370.296 -21645646.879 11829063.683 10 0 60999 13500.00000 0 -6665821.772 -22915888.351 8958513.523 10 0 60999 14400.00000 0 -6933995.092 -23805538.508 5913601.312 10 0 60999 15300.00000 0 -7187755.423 -24299265.308 2753569.015 10 0 60999 16200.00000 0 -7371053.798 -24395078.046 -460073.484 10 0 60999 17100.00000 0 -7429532.986 -24104313.243 -3664754.932 10 0 60999 18000.00000 0 -7313069.885 -23451076.249 -6798071.659 10 0 60999 18900.00000 0 -6978145.080 -22471162.375 -9799013.716 10 0 60999 19800.00000 0 -6389937.629 -21210503.671 -12609163.093 10 0 60999 20700.00000 0 -5524054.892 -19723207.716 -15173839.413 10 0 60999 21600.00000 0 -4367822.959 -18069272.111 -17443169.937 10 0 60999 22500.00000 0 -2921082.111 -16312071.951 -19373062.450 10 0 60999 23400.00000 0 -1196453.012 -14515726.904 -20926061.887 10 0 60999 24300.00000 0 780938.152 -12742459.173 -22072074.249 10 0 60999 25200.00000 0 2974264.397 -11050053.457 -22788944.298 10 0 60999 26100.00000 0 5336299.057 -9489525.247 -23062876.574 10 0 60999 27000.00000 0 7811159.051 -8103094.430 -22888692.535 10 0 60999 27900.00000 0 10336417.774 -6922547.934 -22269919.822 10 0 60999 28800.00000 0 12845499.751 -5968058.455 -21218712.842 10 0 60999 29700.00000 0 15270257.762 -5247506.997 -19755607.019 10 0 60999 30600.00000 0 17543625.718 -4756335.701 -17909112.059 10 0 60999 31500.00000 0 19602237.549 -4477935.332 -15715152.529 10 0 60999 32400.00000 0 21388903.950 -4384549.415 -13216366.798 10 0 60999 33300.00000 0 22854844.776 -4438655.598 -10461277.928 10 0 60999 34200.00000 0 23961585.037 -4594764.956 -7503352.546 10 0 60999 35100.00000 0 24682436.446 -4801562.639 -4399965.722 10 0 60999 36000.00000 0 25003503.659 -5004299.094 -1211291.702 10 0 60999 36900.00000 0 24924174.038 -5147330.749 2000858.229 10 0 60999 37800.00000 0 24457071.270 -5176702.841 5174228.517 10 0 60999 38700.00000 0 23627475.330 -5042665.412 8247319.958 10 0 60999 39600.00000 0 22472233.463 -4702016.317 11160575.187 10 0 60999 40500.00000 0 21038207.890 -4120172.343 13857526.496 10 0 60999 41400.00000 0 19380325.089 -3272880.871 16285884.260 10 0 60999 42300.00000 0 17559307.908 -2147499.484 18398545.306 10 0 60999 43200.00000 0 15639184.787 -743788.826 20154502.322 10 0 60999 44100.00000 0 13684679.461 925815.836 21519637.173 10 0 60999 45000.00000 0 11758589.392 2836467.297 22467383.151 10 0 60999 45900.00000 0 9919261.549 4951694.267 22979243.625 10 0 60999 46800.00000 0 8218270.156 7224683.550 23045157.034 10 0 60999 47700.00000 0 6698392.716 9600005.176 22663700.907 10 0 60999 48600.00000 0 5391968.370 12015710.591 21842130.410 10 0 60999 49500.00000 0 4319706.898 14405718.353 20596249.835 10 0 60999 50400.00000 0 3489998.136 16702389.325 18950118.486 10 0 60999 51300.00000 0 2898750.741 18839185.084 16935595.504 10 0 60999 52200.00000 0 2529767.181 20753299.194 14591731.274 10 0 60999 53100.00000 0 2355639.301 22388151.458 11964016.196 10 0 60999 54000.00000 0 2339126.674 23695640.533 9103500.604 10 0 60999 54900.00000 0 2434959.395 24638059.871 6065802.484 10 0 60999 55800.00000 0 2591988.596 25189595.782 2910022.257 10 0 60999 56700.00000 0 2755592.874 25337343.853 -302413.871 10 0 60999 57600.00000 0 2870237.619 25081800.283 -3508958.709 10 0 60999 58500.00000 0 2882077.363 24436806.970 -6647172.493 10 0 60999 59400.00000 0 2741489.346 23428952.591 -9655949.707 10 0 60999 60300.00000 0 2405429.303 22096455.097 -12476719.184 10 0 60999 61200.00000 0 1839508.183 20487573.290 -15054592.881 10 0 60999 62100.00000 0 1019700.537 18658615.142 -17339440.047 10 0 60999 63000.00000 0 -66388.765 16671627.502 -19286865.293 10 0 60999 63900.00000 0 -1418753.805 14591865.152 -20859071.285 10 0 60999 64800.00000 0 -3024745.966 12485146.113 -22025589.472 10 0 60999 65700.00000 0 -4859371.925 10415204.367 -22763865.176 10 0 60999 66600.00000 0 -6886118.996 8441150.817 -23059686.449 10 0 60999 67500.00000 0 -9058273.415 6615148.147 -22907449.325 10 0 60999 68400.00000 0 -11320676.567 4980395.755 -22310255.330 10 0 60999 69300.00000 0 -13611845.975 3569507.570 -21279840.273 10 0 60999 70200.00000 0 -15866372.838 2403348.788 -19836336.554 10 0 60999 71100.00000 0 -18017496.557 1490378.170 -18007874.172 10 0 60999 72000.00000 0 -19999749.444 826521.410 -15830028.595 10 0 60999 72900.00000 0 -21751562.032 395578.855 -13345126.419 10 0 60999 73800.00000 0 -23217721.064 170148.678 -10601422.261 10 0 60999 74700.00000 0 -24351578.420 113025.162 -7652162.792 10 0 60999 75600.00000 0 -25116919.551 179012.067 -4554555.850 10 0 60999 76500.00000 0 -25489414.137 317073.812 -1368664.385 10 0 60999 77400.00000 0 -25457589.028 472733.242 1843753.559 10 0 60999 78300.00000 0 -25023283.338 590614.525 5020436.633 10 0 60999 79200.00000 0 -24201567.055 617023.759 8099820.939 10 0 60999 80100.00000 0 -23020126.817 502458.387 11022226.807 10 0 60999 81000.00000 0 -21518144.526 203939.527 13731009.017 10 0 60999 81900.00000 0 -19744715.470 -312931.231 16173648.654 10 0 60999 82800.00000 0 -17756871.625 -1072277.544 18302765.916 10 0 60999 83700.00000 0 -15617292.029 -2086688.430 20077034.847 10 0 60999 84600.00000 0 -13391794.975 -3356446.702 21461982.765 10 0 60999 85500.00000 0 -11146715.683 -4869279.374 22430659.315 10 0 61000 0.00000 0 -8946278.018 -6600642.007 22964162.438 10 0 61000 900.00000 0 -6850067.629 -8514527.922 23052011.286 10 0 61000 1800.00000 0 -4910713.951 -10564768.178 22692358.007 10 0 61000 2700.00000 0 -3171873.056 -12696773.121 21892034.696 10 0 61000 3600.00000 0 -1666597.940 -14849642.481 20666432.980 10 0 61000 4500.00000 0 -416162.822 -16958558.436 19039217.895 10 0 61000 5400.00000 0 570609.375 -18957362.809 17041880.388 10 0 61000 6300.00000 0 1297488.262 -20781211.470 14713135.929 10 0 61000 7200.00000 0 1780440.044 -22369195.148 12098179.884 10 0 61000 8100.00000 0 2046711.191 -23666816.682 9247813.311 10 0 61000 9000.00000 0 2133430.624 -24628220.200 6217455.653 10 0 61000 9900.00000 0 2085789.879 -25218077.728 3066063.552 10 0 61000 10800.00000 0 1954879.031 -25413052.873 -145022.877 10 0 61000 11700.00000 0 1795271.002 -25202779.014 -3353283.082 10 0 61000 12600.00000 0 1662457.923 -24590309.959 -6496243.913 10 0 61000 13500.00000 0 1610249.708 -23592023.566 -9512707.105 10 0 61000 14400.00000 0 1688246.652 -22236982.189 -12343951.236 10 0 61000 15300.00000 0 1939494.686 -20565777.039 -14934883.520 10 0 61000 16200.00000 0 2398423.946 -18628905.584 -17235118.081 10 0 61000 17100.00000 0 3089158.989 -16484750.798 -19199959.109 10 0 61000 18000.00000 0 4024272.951 -14197247.873 -20791269.527 10 0 61000 18900.00000 0 5204038.755 -11833336.841 -21978208.435 10 0 61000 19800.00000 0 6616209.294 -9460308.148 -22737823.533 10 0 61000 20700.00000 0 8236335.966 -7143152.268 -23055487.775 10 0 61000 21600.00000 0 10028612.261 -4942023.696 -22925172.716 10 0 61000 22500.00000 0 11947207.052 -2909924.317 -22349554.266 10 0 61000 23400.00000 0 13938031.827 -1090701.588 -21339949.727 10 0 61000 24300.00000 0 15940868.088 482556.645 -19916088.155 10 0 61000 25200.00000 0 17891766.277 1788665.599 -18105719.111 10 0 61000 26100.00000 0 19725616.366 2818979.638 -15944067.836 10 0 61000 27000.00000 0 21378783.226 3577496.483 -13473147.592 10 0 61000 27900.00000 0 22791697.272 4080427.284 -10740942.553 10 0 61000 28800.00000 0 23911292.717 4355252.368 -7800477.019 10 0 61000 29700.00000 0 24693192.154 4439303.910 -4708788.809 10 0 61000 30600.00000 0 25103546.700 4377936.343 -1525826.474 10 0 61000 31500.00000 0 25120455.212 4222362.418 1686708.496 10 0 61000 32400.00000 0 24734903.586 4027246.671 4866552.344 10 0 61000 33300.00000 0 23951185.062 3848158.075 7952079.843 10 0 61000 34200.00000 0 22786783.993 3738989.387 10883492.259 10 0 61000 35100.00000 0 21271727.780 3749452.089 13603969.881 10 0 61000 36000.00000 0 19447433.661 3922752.507 16060767.258 10 0 61000 36900.00000 0 17365097.941 4293547.165 18206230.420 10 0 61000 37800.00000 0 15083694.100 4886263.764 19998716.908 10 0 61000 38700.00000 0 12667662.249 5713859.010 21403401.308 10 0 61000 39600.00000 0 10184385.190 6777066.402 22392951.096 10 0 61000 40500.00000 0 7701554.985 8064166.835 22948059.965 10 0 61000 41400.00000 0 5284538.561 9551293.194 23057828.330 10 0 61000 42300.00000 0 2993850.933 11203258.017 22719983.413 10 0 61000 43200.00000 0 882840.361 12974871.508 21940934.125 10 0 61000 44100.00000 0 -1004318.887 14812696.655 20735658.861 10 0 61000 45000.00000 0 -2634242.933 16657169.751 19127427.381 10 0 61000 45900.00000 0 -3985496.717 18444998.996 17147361.006 10 0 61000 46800.00000 0 -5049246.211 20111741.696 14833838.502 10 0 61000 47700.00000 0 -5829377.180 21594452.550 12231758.099 10 0 61000 48600.00000 0 -6342075.692 22834291.866 9391669.214 10 0 61000 49500.00000 0 -6614888.302 23778983.671 6368790.193 10 0 61000 50400.00000 0 -6685301.963 24385019.470 3221931.180 10 0 61000 51300.00000 0 -6598904.386 24619513.789 12343.363 10 0 61000 52200.00000 0 -6407203.626 24461632.135 -3197482.237 10 0 61000 53100.00000 0 -6165200.438 23903530.097 -6345041.978 10 0 61000 54000.00000 0 -5928817.690 22950763.080 -9369047.679 10 0 61000 54900.00000 0 -5752297.284 21622148.801 -12210630.370 10 0 61000 55800.00000 0 -5685676.384 19949088.113 -14814495.045 10 0 61000 56700.00000 0 -5772451.211 17974372.785 -17130003.001 10 0 61000 57600.00000 0 -6047528.411 15750530.687 -19112160.066 10 0 61000 58500.00000 0 -6535551.451 13337778.329 -20722491.225 10 0 61000 59400.00000 0 -7249673.255 10801667.077 -21929784.776 10 0 61000 60300.00000 0 -8190827.099 8210521.864 -22710692.086 10 0 61000 61200.00000 0 -9347526.465 5632779.597 -23050171.991 10 0 61000 62100.00000 0 -10696202.176 3134338.091 -22941772.223 10 0 61000 63000.00000 0 -12202062.441 776025.402 -22387743.357 10 0 61000 63900.00000 0 -13820439.570 -1388706.039 -21398984.045 10 0 61000 64800.00000 0 -15498566.815 -3315765.871 -19994819.415 10 0 61000 65700.00000 0 -17177710.985 -4972011.889 -18202617.578 10 0 61000 66600.00000 0 -18795571.666 -6336371.591 -16057252.110 10 0 61000 67500.00000 0 -20288846.979 -7400454.551 -13600421.153 10 0 61000 68400.00000 0 -21595858.850 -8168632.112 -10879836.368 10 0 61000 69300.00000 0 -22659128.363 -8657583.087 -7948297.394 10 0 61000 70200.00000 0 -23427793.835 -8895326.256 -4862669.560 10 0 61000 71100.00000 0 -23859770.799 -8919781.803 -1682784.437 10 0 61000 72000.00000 0 -23923563.767 -8776923.263 1529715.723 10 0 61000 72900.00000 0 -23599654.127 -8518598.628 4712567.525 10 0 61000 73800.00000 0 -22881406.141 -8200112.833 7804087.241 10 0 61000 74700.00000 0 -21775452.994 -7877673.750 10744359.923 10 0 61000 75600.00000 0 -20301546.431 -7605809.399 13476394.184 10 0 61000 76500.00000 0 -18491875.732 -7434865.134 15947220.757 10 0 61000 77400.00000 0 -16389883.708 -7408686.216 18108914.026 10 0 61000 78300.00000 0 -14048628.167 -7562583.397 19919517.278 10 0 61000 79200.00000 0 -11528756.009 -7921667.331 21343854.284 10 0 61000 80100.00000 0 -8896173.055 -8499622.379 22354211.868 10 0 61000 81000.00000 0 -6219505.267 -9297972.135 22930880.542 10 0 61000 81900.00000 0 -3567455.577 -10305868.668 23062542.757 10 0 61000 82800.00000 0 -1006165.059 -11500415.766 22746501.025 10 0 61000 83700.00000 0 1403312.969 -12847514.269 21988740.984 10 0 61000 84600.00000 0 3607321.690 -14303195.810 20803827.377 10 0 61000 85500.00000 0 5561596.880 -15815390.702 19214633.954 10 0 61001 0.00000 0 7232867.444 -17326057.150 17251911.580 10 0 61001 900.00000 0 8599994.649 -18773584.401 14953700.626 10 0 61001 1800.00000 0 9654600.367 -20095367.539 12364600.724 10 0 61001 2700.00000 0 10401161.092 -21230448.540 9534907.727 10 0 61001 3600.00000 0 10856561.692 -22122110.175 6519636.682 10 0 61001 4500.00000 0 11049128.997 -22720313.486 3377448.796 10 0 61001 5400.00000 0 11017186.431 -22983874.923 169503.710 10 0 61001 6300.00000 0 10807191.593 -22882289.988 -3041739.829 10 0 61001 7200.00000 0 10471536.706 -22397125.165 -6193750.509 10 0 61001 8100.00000 0 10066106.379 -21522918.167 -9225153.065 10 0 61001 9000.00000 0 9647697.559 -20267547.600 -12076933.781 10 0 61001 9900.00000 0 9271412.454 -18652055.784 -14693598.174 10 0 61001 10800.00000 0 8988136.141 -16709931.895 -17024257.328 10 0 61001 11700.00000 0 8842206.771 -14485885.515 -19023621.148 10 0 61001 12600.00000 0 8869377.713 -12034162.311 -20652878.869 10 0 61001 13500.00000 0 9095158.187 -9416472.714 -21880449.871 10 0 61001 14400.00000 0 9533602.590 -6699620.520 -22682590.687 10 0 61001 15300.00000 0 10186599.361 -3952930.626 -23043847.152 10 0 61001 16200.00000 0 11043689.014 -1245583.033 -22957343.871 10 0 61001 17100.00000 0 12082418.497 1356036.305 -22424906.386 10 0 61001 18000.00000 0 13269216.549 3790858.311 -21457014.610 10 0 61001 18900.00000 0 14560752.869 6005423.562 -20072589.305 10 0 61001 19800.00000 0 15905723.824 7955851.166 -18298616.334 10 0 61001 20700.00000 0 17246989.642 9609403.532 -16169616.472 10 0 61001 21600.00000 0 18523973.531 10945583.867 -13726971.249 10 0 61001 22500.00000 0 19675222.301 11956722.640 -11018117.960 10 0 61001 23400.00000 0 20641021.360 12648030.517 -8095629.372 10 0 61001 24300.00000 0 21365954.750 13037117.425 -5016195.801 10 0 61001 25200.00000 0 21801303.162 13152999.545 -1839529.029 10 0 61001 26100.00000 0 21907179.596 13034637.225 1372790.925 10 0 61001 27000.00000 0 21654313.238 12729066.290 4558504.126 10 0 61001 27900.00000 0 21025406.755 12289202.017 7655871.451 10 0 61001 28800.00000 0 20016009.912 11771408.581 10604864.749 10 0 61001 29700.00000 0 18634872.491 11232936.420 13348323.821 10 0 61001 30600.00000 0 16903761.087 10729335.368 15833058.242 10 0 61001 31500.00000 0 14856746.529 10311952.298 18010873.174 10 0 61001 32400.00000 0 12538990.550 10025618.431 19839499.823 10 0 61001 33300.00000 0 10005080.971 9906623.513 21283413.031 10 0 61001 34200.00000 0 7316983.286 9981062.192 22314520.565 10 0 61001 35100.00000 0 4541692.371 10263622.409 22912711.009 10 0 61001 36000.00000 0 1748680.379 10756867.430 23066249.727 10 0 61001 36900.00000 0 -992754.506 11451042.582 22772014.976 10 0 61001 37800.00000 0 -3616129.582 12324416.085 22035569.113 10 0 61001 38700.00000 0 -6060300.681 13344141.072 20871062.736 10 0 61001 39600.00000 0 -8271762.541 14467604.040 19300972.603 10 0 61001 40500.00000 0 -10206631.272 15644204.495 17355677.298 10 0 61001 41400.00000 0 -11832226.514 16817492.097 15072877.669 10 0 61001 42300.00000 0 -13128187.277 17927572.182 12496872.258 10 0 61001 43200.00000 0 -14087074.834 18913678.717 9677700.942 10 0 61001 44100.00000 0 -14714437.430 19716806.077 6670172.899 10 0 61001 45000.00000 0 -15028334.290 20282288.028 3532797.719 10 0 61001 45900.00000 0 -15058339.394 20562213.993 326640.767 10 0 61001 46800.00000 0 -14844067.740 20517579.304 -2885874.248 10 0 61001 47700.00000 0 -14433287.296 20120077.142 -6042191.081 10 0 61001 48600.00000 0 -13879697.720 19353455.088 -9080850.078 10 0 61001 49500.00000 0 -13240471.181 18214377.763 -11942695.385 10 0 61001 50400.00000 0 -12573660.804 16712758.179 -14572035.488 10 0 61001 51300.00000 0 -11935587.751 14871543.167 -16917733.524 10 0 61001 52200.00000 0 -11378318.596 12725961.518 -18934205.502 10 0 61001 53100.00000 0 -10947340.482 10322266.326 -20582306.683 10 0 61001 54000.00000 0 -10679532.700 7716024.318 -21830089.029 10 0 61001 54900.00000 0 -10601520.376 4970023.852 -22653415.467 10 0 61001 55800.00000 0 -10728479.370 2151889.091 -23036419.758 10 0 61001 56700.00000 0 -11063442.187 -668500.266 -22971803.989 10 0 61001 57600.00000 0 -11597133.337 -3421676.579 -22460968.928 10 0 61001 58500.00000 0 -12308340.269 -6041228.809 -21513975.643 10 0 61001 59400.00000 0 -13164803.498 -8466315.038 -20149340.019 10 0 61001 60300.00000 0 -14124587.870 -10643939.777 -18393664.784 10 0 61001 61200.00000 0 -15137876.885 -12530902.918 -16281116.647 10 0 61001 62100.00000 0 -16149114.407 -14095340.959 -13852758.939 10 0 61001 63000.00000 0 -17099403.738 -15317798.185 -11155752.726 10 0 61001 63900.00000 0 -17929063.292 -16191784.995 -8242441.826 10 0 61001 64800.00000 0 -18580231.698 -16723801.876 -5169339.287 10 0 61001 65700.00000 0 -18999413.051 -16932829.678 -1996034.711 10 0 61001 66600.00000 0 -19139855.577 -16849308.952 1215956.632 10 0 61001 67500.00000 0 -18963663.868 -16513652.325 4404380.897 10 0 61001 68400.00000 0 -18443555.953 -15974353.174 7507446.286 10 0 61001 69300.00000 0 -17564191.228 -15285770.622 10465014.246 10 0 61001 70200.00000 0 -16323013.098 -14505684.174 13219758.577 10 0 61001 71100.00000 0 -14730570.305 -13692720.810 15718270.461 10 0 61001 72000.00000 0 -12810302.519 -12903762.538 17912088.461 10 0 61001 72900.00000 0 -10597797.934 -12191443.086 19758634.100 10 0 61001 73800.00000 0 -8139552.357 -11601838.665 21222035.389 10 0 61001 74700.00000 0 -5491279.907 -11172449.602 22273822.757 10 0 61001 75600.00000 0 -2715843.906 -10930557.613 22893484.188 10 0 61001 76500.00000 0 119107.733 -10892027.874 23068868.864 10 0 61001 77400.00000 0 2943706.008 -11060606.701 22796431.280 10 0 61001 78300.00000 0 5688518.178 -11427745.080 22081310.623 10 0 61001 79200.00000 0 8287189.820 -11972956.438 20937243.085 10 0 61001 80100.00000 0 10678962.639 -12664694.747 19386307.838 10 0 61001 81000.00000 0 12810963.888 -13461717.174 17458510.441 10 0 61001 81900.00000 0 14640172.328 -14314874.957 15191210.597 10 0 61001 82800.00000 0 16134978.726 -15169257.836 12628404.299 10 0 61001 83700.00000 0 17276275.571 -15966602.036 9819873.479 10 0 61001 84600.00000 0 18058030.289 -16647860.141 6820219.123 10 0 61001 85500.00000 0 18487317.827 -17155823.837 3687796.578 99